Location: Houston
(29.7630°N, 95.3630°W)
Time: 02:45:46
(UTC-05:00)

Saudisat 1A - Visible Passes

Search period start: 31 May 2016 00:00
Search period end: 10 June 2016 00:00
Orbit: 563 x 631 km, 64.6° (Epoch: 31 May)

Date Brightness Start Highest point End Pass type
(mag) Time Alt. Az. Time Alt. Az. Time Alt. Az.
31 May 11.0 00:54:38 10° N 00:55:26 14° N 00:55:26 14° N visible
01 Jun 11.0 01:04:28 10° NNW 01:05:06 14° NNW 01:05:06 14° NNW visible
02 Jun 11.1 01:14:39 10° NNW 01:14:49 11° NNW 01:14:49 11° NNW visible
02 Jun 10.7 23:46:38 10° N 23:47:57 15° NNE 23:47:57 15° NNE visible
03 Jun 10.5 23:56:07 10° N 23:57:45 20° N 23:57:45 20° N visible
05 Jun 10.4 00:06:02 10° NNW 00:07:37 21° NNW 00:07:37 21° NNW visible
05 Jun 10.5 22:39:17 10° NNE 22:40:51 12° NE 22:40:51 12° NE visible
06 Jun 10.6 00:16:18 10° NW 00:17:30 18° NW 00:17:30 18° NW visible
06 Jun 9.9 22:47:59 10° N 22:50:47 21° NE 22:50:47 21° NE visible
07 Jun 10.9 00:26:58 10° NW 00:27:27 12° NW 00:27:27 12° NW visible
07 Jun 9.3 22:57:36 10° N 23:00:46 34° NNE 23:00:46 34° NNE visible
08 Jun 9.0 23:07:36 10° NNW 23:10:48 45° NNW 23:10:48 45° NNW visible
09 Jun 10.2 21:40:19 10° NNE 21:42:36 14° NE 21:44:12 12° ENE visible
09 Jun 9.4 23:17:57 10° NW 23:20:53 35° WNW 23:20:53 35° WNW visible
